Regional Weather Roundup
Issued by NWS

Home | Current Version | Previous Version | Graphics & Text | Print | Product List | Glossary On
Versions: 1 2 3 4 5 6 7 8 9 10 11 12 13 14 15 16 17 18 19 20 21 22 23 24 25 26 27 28 29 30 31 32 33 34 35 36 37 38 39 40 41 42 43 44 45 46 47 48 49 50
000
ASUS43 KLOT 280208
RWRIL

ILLINOIS REGIONAL WEATHER ROUNDUP
NATIONAL WEATHER SERVICE CHICAGO/ROMEOVILLE IL
900 PM CDT WED MAY 27 2015

NOTE: "FAIR" INDICATES FEW OR NO CLOUDS BELOW 12,000 FEET WITH NO
SIGNIFICANT WEATHER AND/OR OBSTRUCTIONS TO VISIBILITY.

* THESE STATIONS ARE NOT UNDER NWS QUALITY CONTROL. THEY ALSO MAY NOT
  REPORT WEATHER SUCH AS PRECIPITATION OR FOG.

ILZ001-002-007-009-015-016-024-280300-
NORTHWEST ILLINOIS

CITY           SKY/WX    TMP DP  RH WIND       PRES   REMARKS
MOLINE         CLEAR     68  59  73 CALM      30.06R
STERLING*      CLEAR     66  61  82 CALM      30.08R
SAVANNA*       CLEAR     69  60  75 S5        30.06R
$$

ILZ003-004-008-010-011-017-018-280300-
NORTH CENTRAL ILLINOIS

CITY           SKY/WX    TMP DP  RH WIND       PRES   REMARKS
ROCKFORD       PTCLDY    66  57  72 SE3       30.09R
FREEPORT*      CLEAR     64  58  80 SW5       30.09R
ROCHELLE*      CLEAR     66  60  81 CALM      30.10R
DE KALB*       CLEAR     63  54  72 CALM      30.10R
PERU*          CLEAR     69  57  64 CALM      30.10R
$$

ILZ005-006-012>014-019>023-280300-
NORTHEAST ILLINOIS

CITY           SKY/WX    TMP DP  RH WIND       PRES   REMARKS
CHICAGO-OHARE  CLEAR     67  54  63 CALM      30.09R
CHICAGO-MIDWAY CLEAR     72  54  53 CALM      30.09R
AURORA         CLEAR     65  56  72 CALM      30.10R
LANSING*       CLEAR     65  55  69 E5        30.11R
JOLIET*        CLEAR     64  58  83 CALM      30.10R
WAUKEGAN       CLEAR     57  55  93 CALM      30.08R
DUPAGE AIRPORT CLEAR     63  56  78 CALM      30.08R
KANKAKEE*      CLEAR     69  56  63 N3        30.11R
WHEELING       CLEAR     64  55  72 CALM      30.09R
MORRIS*        CLEAR     69  55  60 CALM      30.09R
ROMEOVILLE*    CLEAR     68  54  60 CALM      30.10R
NORTHERLY ISL    N/A     61  54  77 CALM        N/A
$$

LMZ740>746-280300-
SOUTHERN LAKE MICHIGAN

STATION/POSITION SKY/WX   TEMP    WIND        PRES    VSBY  WAVE
                          AIR SEA DIR/SP/G                  HT/PER
                          (F)     (DEG/KT/KT) (MB)    (MI)  (FT/S)
SOUTHERN BUOY              45 38  230/  6/  6 1019.3R         1
HARRISON CRIB              66      40/  9/ 10   N/A
BURNHAM HARBOR             61      CALM  /  3   N/A
CALUMET HARBOR             62      40/  2/  2   N/A
BURNS HARBOR               62      70/  5/  6 1019.0R
MICHIGAN CITY              61      30/  4/  4   N/A
MICHIGAN CITY 6N           56 53  120/  2/  2   N/A           1
ST. JOSEPH                 56 56  320/  2/  2   N/A           1/ 3
$$

ILZ025>027-034>036-040-047-049-050-058-095>099-280300-
WEST-CENTRAL ILLINOIS

CITY           SKY/WX    TMP DP  RH WIND       PRES   REMARKS
QUINCY         PTCLDY    71  60  68 SE3       30.09R
GALESBURG*     CLEAR     68  58  70 CALM      30.09R
MACOMB*        PTCLDY    68  61  79 CALM      30.10R
JACKSONVILLE*  CLEAR     71  61  71 CALM      30.10R
PITTSFIELD*    PTCLDY    69  60  71 E3        30.11R
$$

ILZ028>032-037-038-041>044-048-051>054-059>061-280300-
CENTRAL ILLINOIS

CITY           SKY/WX    TMP DP  RH WIND       PRES   REMARKS
PONTIAC        CLEAR     70  59  69 CALM      30.11R
BLOOMINGTON    CLEAR     71  56  59 NE3       30.12R
DECATUR        CLEAR     68  57  68 CALM      30.10R
PEORIA         CLEAR     71  58  63 NE3       30.09R
LACON*         CLEAR     64  59  85 CALM      30.08R
LINCOLN*       CLEAR     70  58  66 CALM      30.07R
SPRINGFIELD    CLEAR     68  59  73 CALM      30.09S
TAYLORVILLE    CLEAR     68  61  77 CALM      30.10R
$$

ILZ033-039-045-046-055>057-062-063-280300-
EAST-CENTRAL ILLINOIS

CITY           SKY/WX    TMP DP  RH WIND       PRES   REMARKS
CHAMPAIGN      CLEAR     70  55  59 N8        30.10R
DANVILLE*      CLEAR     69  56  65 NW6       30.07R
RANTOUL*       CLEAR     72  56  57 N5        30.11R
PARIS*         CLEAR     71  58  62 CALM      30.10R
$$

ILZ079-100>102-280300-
SOUTHWEST ILLINOIS

CITY           SKY/WX    TMP DP  RH WIND       PRES   REMARKS
ALTON          CLEAR     73  61  64 N7        30.09S
BELLEVILLE     PTCLDY    73  61  67 N1        30.07S
CAHOKIA*       PTCLDY    74  59  59 CALM      30.08R
SPARTA*        MOCLDY    72  64  77 NE5       30.09R
$$

ILZ064>066-069>071-074>076-080>082-084>086-088>090-092>094-280300-
SOUTH-CENTRAL ILLINOIS

CITY           SKY/WX    TMP DP  RH WIND       PRES   REMARKS
CARBONDALE     MOCLDY    72  67  84 S5        30.09R
CAIRO*         CLOUDY    72  68  89 SE5       30.10R
EFFINGHAM*     CLEAR     68  58  70 CALM      30.11R
MARION         MOCLDY    72  68  88 CALM      30.10R
MT. VERNON     CLOUDY    73  63  68 NW3       30.10R
CENTRALIA*     PTCLDY    70  60  70 CALM      30.09R
SALEM*         PTCLDY    73  61  65 N5        30.10R
METROPOLIS*    CLOUDY    70  69  98 CALM      30.10S
$$

ILZ067-068-072-073-078-083-087-091-280300-
SOUTHEAST ILLINOIS

CITY           SKY/WX    TMP DP  RH WIND       PRES   REMARKS
LAWRENCEVILLE  MOCLDY    71  61  70 S5        30.09R
FLORA*         MOCLDY    73  63  71 CALM      30.10R
FAIRFIELD*     MOCLDY    75  67  75 S3        30.08R
HARRISBURG*    CLOUDY    72  67  87 S5        30.11R
ROBINSON*      CLOUDY    77  59  54 SW3       30.09R
CARMI*         CLOUDY    72  63  73 S7        30.10R
$$

ABBREVIATIONS USED IN REMARKS
   TC - TEMPERATURE IN CELSIUS
  WCI - WIND CHILL INDEX
   HX - HEAT INDEX
  VSB - VISIBILITY
$$




USA.gov is the U.S. government's official web portal to all federal, state and local government web resources and services.